O.H. Ivie Reservoir Weather Center

Moon Phase Calendar



O.H. Ivie Reservoir Water Level
Online Cameras

 


      

Current Conditions in Paint Rock
2/26/2024 8:57:02 AM

72°F
Feels Like 70
Clouds
Humidity
43%
Pressure
29.94"
Wind
8.1 mph (WSW)
Dew Point
48°F
UV Index
1/10 (Low)
Visibility
6 mi

Hourly Forecast

Date & Time Mon, Feb 26
8:00 AM
Mon, Feb 26
9:00 AM
Mon, Feb 26
10:00 AM
Mon, Feb 26
11:00 AM
Mon, Feb 26
12:00 PM
Mon, Feb 26
1:00 PM
Mon, Feb 26
2:00 PM
Mon, Feb 26
3:00 PM
Mon, Feb 26
4:00 PM
Mon, Feb 26
5:00 PM
Mon, Feb 26
6:00 PM
Mon, Feb 26
7:00 PM
Mon, Feb 26
8:00 PM
Mon, Feb 26
9:00 PM
Mon, Feb 26
10:00 PM
Mon, Feb 26
11:00 PM
Tue, Feb 27
12:00 AM
Tue, Feb 27
1:00 AM
Tue, Feb 27
2:00 AM
Tue, Feb 27
3:00 AM
Tue, Feb 27
4:00 AM
Tue, Feb 27
5:00 AM
Tue, Feb 27
6:00 AM
Tue, Feb 27
7:00 AM
Tue, Feb 27
8:00 AM
Tue, Feb 27
9:00 AM
Tue, Feb 27
10:00 AM
Tue, Feb 27
11:00 AM
Tue, Feb 27
12:00 PM
Tue, Feb 27
1:00 PM
Tue, Feb 27
2:00 PM
Tue, Feb 27
3:00 PM
Tue, Feb 27
4:00 PM
Tue, Feb 27
5:00 PM
Tue, Feb 27
6:00 PM
Tue, Feb 27
7:00 PM
Tue, Feb 27
8:00 PM
Tue, Feb 27
9:00 PM
Tue, Feb 27
10:00 PM
Tue, Feb 27
11:00 PM
Wed, Feb 28
12:00 AM
Wed, Feb 28
1:00 AM
Wed, Feb 28
2:00 AM
Wed, Feb 28
3:00 AM
Wed, Feb 28
4:00 AM
Wed, Feb 28
5:00 AM
Wed, Feb 28
6:00 AM
Wed, Feb 28
7:00 AM
Condition
Clouds

Clouds

Clouds

Clouds

Clouds

Clouds

Clouds

Clouds

Clouds

Clouds

Clouds

Clouds

Clouds

Clouds

Clouds

Clouds

Clouds

Clouds

Clouds

Clouds

Clouds

Clouds

Clouds

Clouds

Clouds

Clouds

Clouds

Clouds

Clouds

Clouds

Clouds

Clouds

Clouds

Clouds

Clouds

Clouds

Clouds

Clouds

Clouds

Clouds

Clouds

Clouds

Clouds

Clouds

Clouds

Clouds

Clouds

Clouds
Temperature 70°F72°F73°F77°F82°F88°F93°F93°F92°F91°F85°F80°F79°F78°F76°F75°F75°F74°F73°F72°F71°F70°F70°F71°F71°F75°F81°F85°F87°F88°F88°F88°F87°F86°F83°F81°F80°F80°F79°F78°F78°F77°F75°F74°F59°F50°F47°F46°F
Feels Like 69°F70°F72°F76°F81°F84°F88°F89°F88°F87°F83°F80°F79°F78°F76°F75°F74°F74°F72°F71°F71°F69°F69°F69°F69°F74°F79°F82°F84°F84°F85°F84°F83°F83°F80°F79°F79°F80°F79°F77°F76°F75°F74°F72°F57°F43°F39°F38°F
Cloudiness 87%88%89%89%91%98%94%90%93%94%95%100%100%100%100%100%100%98%94%96%97%97%98%100%100%100%97%98%98%100%99%100%100%100%100%100%100%100%100%100%100%100%100%100%100%100%100%100%
Visibility 6 mi6 mi6 mi6 mi6 mi6 mi6 mi6 mi6 mi6 mi6 mi6 mi6 mi6 mi6 mi6 mi6 mi6 mi6 mi6 mi6 mi6 mi6 mi6 mi6 mi6 mi6 mi6 mi6 mi6 mi6 mi6 mi6 mi6 mi6 mi6 mi6 mi6 mi6 mi6 mi6 mi6 mi6 mi6 mi6 mi6 mi6 mi6 mi
Precipitation 0%0%0%0%0%0%0%0%0%0%0%0%0%0%0%0%0%0%0%0%0%0%0%0%0%0%0%0%0%0%0%0%0%0%0%0%0%0%0%0%0%0%0%0%0%0%0%0%
Humidity 45%43%41%36%28%21%16%17%19%21%27%33%37%41%44%45%44%44%47%49%49%50%45%34%29%24%19%15%13%13%13%13%14%14%17%18%19%20%21%21%23%24%25%23%35%39%40%39%
Dew Point 48°F48°F48°F48°F46°F43°F40°F41°F43°F45°F47°F48°F50°F52°F53°F52°F52°F51°F51°F51°F51°F51°F48°F41°F37°F36°F35°F33°F31°F31°F32°F32°F32°F32°F33°F34°F34°F35°F35°F35°F37°F37°F37°F34°F31°F26°F24°F22°F
Pressure 29.94"29.94"29.94"29.91"29.88"29.85"29.77"29.74"29.74"29.71"29.71"29.71"29.74"29.74"29.77"29.77"29.74"29.74"29.74"29.74"29.71"29.71"29.71"29.74"29.74"29.77"29.74"29.71"29.71"29.71"29.68"29.65"29.65"29.65"29.68"29.68"29.71"29.77"29.77"29.77"29.8"29.8"29.83"29.85"29.94"30.03"30.12"30.15"
Wind Speed 7.9 mph8.1 mph10.5 mph10.8 mph12.8 mph14.4 mph15.9 mph16.9 mph16.8 mph14.2 mph12.1 mph10.1 mph12.2 mph12.8 mph11.1 mph10.9 mph11.5 mph10.6 mph9.2 mph10.5 mph12 mph10.8 mph11.3 mph11.5 mph11.9 mph14.2 mph16.9 mph21.4 mph24.1 mph24.4 mph21.8 mph21.7 mph20 mph16.1 mph15.8 mph18.7 mph19.8 mph20.6 mph15.9 mph20.2 mph24.6 mph25.2 mph22.5 mph20.2 mph27 mph24 mph21.2 mph21.4 mph
Wind
Direction
253°
WSW
246°
WSW
241°
WSW
231°
SW
225°
SW
218°
SW
217°
SW
219°
SW
223°
SW
225°
SW
218°
SW
202°
SSW
202°
SSW
201°
SSW
209°
SSW
210°
SSW
220°
SW
236°
SW
243°
WSW
235°
SW
234°
SW
247°
WSW
257°
WSW
258°
WSW
257°
WSW
264°
W
270°
W
280°
W
274°
W
277°
W
269°
W
270°
W
275°
W
268°
W
284°
WNW
287°
WNW
291°
WNW
290°
WNW
291°
WNW
297°
WNW
299°
WNW
302°
WNW
303°
WNW
314°
NW
15°
NNE
23°
NNE
25°
NNE
35°
NE

Daily Forecast

Date High Low Precip. Humidity
Today
Feb 26

Clouds
93 °F
65 °F
0%
28%
Tuesday
Feb 27

Clouds
88 °F
70 °F
0%
13%
Wednesday
Feb 28

Clouds
78 °F
46 °F
23%
28%
Thursday
Feb 29

Rain
52 °F
44 °F
100%
84%
Friday
Mar 1

Clear
80 °F
45 °F
0%
30%
Saturday
Mar 2

Clouds
84 °F
57 °F
0%
34%
Sunday
Mar 3

Rain
80 °F
63 °F
35%
67%
Monday
Mar 4

Clouds
68 °F
55 °F
0%
16%
Tuesday
Mar 5

Clouds
64 °F
46 °F
0%
18%
Wednesday
Mar 6

Rain
75 °F
54 °F
100%
50%
Thursday
Mar 7

Clouds
76 °F
54 °F
0%
25%
Friday
Mar 8

Clouds
71 °F
49 °F
0%
20%
Saturday
Mar 9

Rain
64 °F
54 °F
54%
58%
Sunday
Mar 10

Clear
74 °F
47 °F
0%
26%
Monday
Mar 11

Clouds
76 °F
54 °F
0%
29%
Tuesday
Mar 12

Clouds
74 °F
56 °F
0%
21%

Temperature 8-14 Day Outlook



Precipitation 8-14 Day Outlook




Quick Links
O.H. Ivie Reservoir News
O.H. Ivie Reservoir Photos
O.H. Ivie Reservoir Videos




About Us
Contact Us
Site Map
Search Site
Advertise With Us
   
OHIvie.USLakes.info
THE O.H. IVIE RESERVOIR WEBSITE

Copyright 2024, Lakes Online
Privacy    |    Legal